PBO Station Position Time Series. Reference Frame : NAM14
Format Version,1.1.0
4-character ID,GR8V
Station name,GR8V_BARD_CN2003
Begin Date, 2003-01-22
End Date, 2008-04-27
Release Date, 2021-02-19
Reference position, 36.3990080529 North Latitude, -120.4157725160 East Longitude, 204.24621 meters elevation,
Date, North (mm), East (mm), Vertical (mm), North Std. Deviation (mm), East Std. Deviation (mm),              Vertical Std. Deviation (mm), Quality,
2003-01-22,0.00, 0.00, 0.00, 2.10, 1.77, 7.97, repro,
2003-01-23,1.16, 1.53, 4.68, 2.40, 1.90, 8.82, repro,
2003-01-24,1.04, 0.34, -7.09, 2.20, 1.78, 8.20, repro,
2003-01-25,0.67, 2.27, -11.53, 2.17, 1.91, 8.25, repro,
2003-01-26,-1.14, 0.93, -12.21, 2.19, 1.93, 8.40, repro,
2003-01-27,-0.52, 2.68, -1.15, 2.38, 1.98, 9.05, repro,
2003-01-28,1.47, 0.80, -3.22, 2.34, 2.08, 8.85, repro,
2003-01-29,1.01, 0.58, -10.88, 2.33, 1.93, 8.82, repro,
2003-01-30,-1.26, 2.49, -5.69, 2.41, 1.95, 9.05, repro,
2003-01-31,-0.13, 1.09, -13.02, 2.34, 1.93, 8.87, repro,
2003-02-01,0.99, 2.74, -7.44, 2.25, 1.96, 8.71, repro,
2003-02-02,1.52, 3.14, 1.98, 2.21, 1.85, 8.28, repro,
2003-02-03,0.76, 0.98, -11.93, 2.27, 1.87, 8.45, repro,
2003-02-04,0.64, 1.96, 0.22, 2.33, 2.03, 8.89, repro,
2003-02-05,-0.15, 1.62, -0.79, 2.37, 2.02, 9.04, repro,
2003-02-06,1.25, 1.45, -6.20, 2.42, 2.10, 9.22, repro,
2003-02-07,2.37, 2.25, -6.59, 2.60, 2.30, 9.65, repro,
2003-02-08,1.17, 2.03, 1.60, 2.28, 2.00, 8.57, repro,
2003-02-09,0.04, 2.15, -0.74, 2.66, 2.30, 9.87, repro,
2003-02-10,0.32, 2.18, -6.08, 2.30, 2.05, 8.63, repro,
2003-02-11,4.42, 1.39, 6.09, 2.30, 1.99, 8.86, repro,
2003-02-12,2.06, 0.91, -1.28, 2.15, 1.86, 8.19, repro,
2003-02-13,7.94, 2.23, -1.17, 2.19, 1.89, 8.36, repro,
2003-02-14,2.17, 2.49, -8.28, 2.09, 1.80, 7.97, repro,
2003-02-15,-0.44, 1.46, -4.16, 2.23, 1.93, 8.48, repro,
2003-02-16,0.43, 3.94, 8.22, 2.36, 2.01, 9.26, repro,
2003-02-17,1.94, 3.04, -1.26, 2.52, 2.16, 9.85, repro,
2003-02-18,0.45, 1.50, -8.05, 2.27, 1.98, 8.66, repro,
2003-02-19,1.44, 1.02, -1.83, 2.16, 1.82, 8.09, repro,
2003-02-20,-0.59, 2.20, -12.44, 2.09, 1.75, 7.90, repro,
2003-02-21,0.56, 1.62, -1.57, 2.07, 1.72, 7.77, repro,
2003-02-22,0.54, 1.93, -2.60, 2.13, 1.77, 7.93, repro,
2003-02-23,0.72, 1.50, -4.98, 2.11, 1.74, 7.86, repro,
2003-02-24,0.40, 1.31, -8.54, 2.08, 1.74, 7.77, repro,
2003-02-25,0.59, 0.76, -27.40, 2.07, 1.74, 7.84, repro,
2003-02-26,-0.85, 1.89, -4.18, 2.09, 1.72, 7.81, repro,
2003-02-27,1.26, 1.75, -13.07, 2.16, 1.77, 8.16, repro,
2003-02-28,0.44, 3.02, -3.40, 2.06, 1.70, 7.66, repro,
2003-03-01,1.37, 1.12, -2.23, 2.15, 1.77, 7.90, repro,
2003-03-02,2.04, 3.46, -0.86, 2.13, 1.77, 7.86, repro,
2003-03-03,1.18, 1.88, 3.73, 2.11, 1.75, 7.82, repro,
2003-03-04,1.63, 3.54, -3.15, 2.09, 1.74, 7.88, repro,
2003-03-05,0.29, 2.07, 0.21, 2.11, 1.72, 7.78, repro,
2003-03-06,2.69, 2.33, -4.42, 2.05, 1.68, 7.56, repro,
2003-03-07,0.47, 1.24, -14.56, 2.16, 1.77, 8.02, repro,
2003-03-08,1.01, 2.44, -9.74, 2.17, 1.78, 8.06, repro,
2003-03-09,3.22, 2.44, -14.38, 2.06, 1.69, 7.66, repro,
2003-03-10,0.69, 0.86, -5.80, 2.10, 1.73, 7.80, repro,
2003-03-11,1.41, 1.86, -7.37, 2.11, 1.73, 7.78, repro,
2003-03-12,0.62, 1.93, -9.01, 2.21, 1.83, 8.13, repro,
2003-03-13,3.78, 1.72, -5.97, 2.21, 1.78, 8.02, repro,
2003-03-14,3.45, 2.44, 0.06, 2.15, 1.77, 8.10, repro,
2003-03-15,-1.10, 2.02, 0.70, 2.19, 1.84, 8.27, repro,
2003-03-16,0.28, 0.61, -2.86, 2.11, 1.76, 7.88, repro,
2003-03-17,2.39, 0.47, 0.43, 2.14, 1.76, 7.93, repro,
2003-03-18,3.02, 1.47, 0.25, 2.14, 1.77, 7.90, repro,
2003-03-19,1.67, 2.04, -1.05, 2.15, 1.79, 8.00, repro,
2003-03-20,2.39, 1.48, -9.06, 2.13, 1.78, 7.96, repro,
2003-03-21,2.71, 1.57, -2.74, 2.09, 1.73, 7.82, repro,
2003-03-22,2.86, 2.40, -7.84, 2.17, 1.83, 8.07, repro,
2003-03-23,1.47, 1.92, -16.41, 2.10, 1.70, 7.78, repro,
2003-03-24,2.63, 3.84, -3.08, 2.16, 1.79, 7.99, repro,
2003-03-25,1.15, 2.06, -12.67, 2.15, 1.78, 7.96, repro,
2003-03-26,1.88, 1.01, -10.90, 2.15, 1.78, 8.02, repro,
2003-03-27,-0.41, 0.85, -10.13, 2.16, 1.79, 8.00, repro,
2003-03-28,-0.96, 2.66, -13.87, 2.18, 1.82, 8.17, repro,
2003-03-29,3.29, 3.04, -13.26, 2.16, 1.77, 7.98, repro,
2003-03-30,1.00, 3.04, -13.67, 2.10, 1.72, 7.76, repro,
2003-03-31,2.09, 2.71, -7.86, 2.10, 1.72, 7.72, repro,
2003-04-01,3.17, 3.10, -2.15, 2.15, 1.78, 7.95, repro,
2003-04-02,1.64, 3.01, -4.61, 2.08, 1.70, 7.72, repro,
2003-04-03,0.90, 3.76, 4.83, 2.17, 1.80, 8.05, repro,
2003-04-04,1.78, 3.01, -6.70, 2.13, 1.74, 7.89, repro,
2003-04-05,2.09, 2.28, -15.24, 2.11, 1.73, 7.80, repro,
2003-04-06,3.38, 2.81, -8.00, 2.10, 1.71, 7.79, repro,
2003-04-07,2.06, 3.33, -17.34, 2.06, 1.69, 7.70, repro,
2003-04-08,2.42, 2.59, -15.20, 2.04, 1.70, 7.70, repro,
2003-04-09,2.97, 2.25, -7.89, 2.09, 1.78, 7.98, repro,
2003-04-10,2.36, 3.18, -9.80, 2.10, 1.78, 7.96, repro,
2003-04-11,2.99, 4.90, -3.38, 2.09, 1.71, 7.84, repro,
2003-04-12,-3.66, -0.41, 8.21, 2.13, 1.73, 8.00, repro,
2003-04-13,-14.22, -3.79, -11.54, 2.08, 1.70, 7.80, repro,
2003-04-14,1.76, 3.26, -4.05, 2.06, 1.67, 7.74, repro,
2003-04-15,2.61, 2.27, -11.04, 2.05, 1.67, 7.70, repro,
2003-04-16,1.98, 2.49, -3.33, 2.08, 1.68, 7.80, repro,
2003-04-17,1.84, 1.57, -13.03, 2.09, 1.70, 7.83, repro,
2003-04-18,0.51, 1.61, 1.05, 2.08, 1.71, 7.82, repro,
2003-04-19,1.85, 2.02, -9.23, 2.03, 1.66, 7.65, repro,
2003-04-20,2.05, 3.22, -8.61, 2.05, 1.66, 7.67, repro,
2003-04-21,1.37, 1.74, -3.28, 2.06, 1.67, 7.69, repro,
2003-04-22,0.20, 1.49, -8.97, 2.06, 1.73, 7.73, repro,
2003-04-23,2.34, 1.66, -3.10, 2.06, 1.70, 7.76, repro,
2003-04-24,0.91, 1.79, -4.93, 2.10, 1.72, 7.95, repro,
2003-04-25,2.60, 1.20, -7.04, 2.06, 1.66, 7.71, repro,
2003-04-26,1.93, 2.10, 0.71, 2.07, 1.71, 7.84, repro,
2003-04-27,2.95, 1.79, -15.98, 2.06, 1.66, 7.66, repro,
2003-04-28,0.85, 1.68, 0.09, 2.09, 1.72, 7.87, repro,
2003-04-29,1.97, 1.98, -8.13, 2.04, 1.66, 7.65, repro,
2003-04-30,1.81, 0.48, -5.72, 2.12, 1.68, 7.94, repro,
2003-05-01,2.79, 2.28, -18.58, 2.12, 1.68, 7.89, repro,
2003-05-02,3.87, 0.64, -5.00, 2.18, 1.78, 8.23, repro,
2003-05-03,4.36, 3.56, -3.55, 2.15, 1.70, 8.11, repro,
2003-05-04,2.80, 0.72, -8.83, 2.04, 1.66, 7.63, repro,
2003-05-05,3.16, 2.04, -1.48, 2.05, 1.65, 7.66, repro,
2003-05-06,1.75, 1.09, -7.72, 2.06, 1.66, 7.70, repro,
2003-05-07,1.78, 1.25, -2.66, 2.13, 1.69, 8.11, repro,
2003-05-08,1.79, 0.94, 0.95, 2.15, 1.75, 8.27, repro,
2003-05-09,0.13, 0.55, -7.75, 2.08, 1.71, 7.83, repro,
2003-05-10,2.58, 1.68, -5.32, 2.03, 1.65, 7.57, repro,
2003-05-11,0.18, 1.18, -2.26, 2.08, 1.67, 7.76, repro,
2003-05-12,0.09, 0.97, -5.00, 2.05, 1.65, 7.63, repro,
2003-05-13,1.41, 2.66, -3.42, 2.13, 1.67, 8.01, repro,
2003-05-14,0.85, 3.45, -0.43, 2.10, 1.71, 7.90, repro,
2003-05-15,1.41, 1.99, -13.06, 2.11, 1.72, 8.05, repro,
2003-05-16,-0.42, 2.39, -5.81, 2.04, 1.64, 7.53, repro,
2003-05-17,-2.11, 3.30, -10.45, 2.12, 1.71, 8.00, repro,
2003-05-18,-0.23, 1.38, -14.07, 2.06, 1.65, 7.67, repro,
2003-05-19,-0.95, 1.44, -7.27, 2.13, 1.73, 7.95, repro,
2003-05-20,1.11, 2.32, -10.77, 2.08, 1.76, 7.95, repro,
2003-05-21,-0.33, 3.60, -13.16, 2.14, 1.74, 8.27, repro,
2003-05-22,0.47, 1.78, -12.85, 2.04, 1.65, 7.57, repro,
2003-05-23,1.01, 1.53, -7.90, 2.08, 1.67, 7.75, repro,
2003-05-24,0.89, 1.78, -7.56, 2.12, 1.68, 8.02, repro,
2003-05-25,-0.26, 0.76, 0.37, 2.05, 1.65, 7.61, repro,
2003-05-26,0.41, 1.57, -2.34, 2.07, 1.66, 7.66, repro,
2003-05-27,-0.20, 2.03, -6.18, 2.20, 1.78, 8.23, repro,
2003-05-28,0.77, 2.47, -15.86, 2.22, 1.78, 8.26, repro,
2003-05-29,-2.03, 2.52, 4.74, 2.14, 1.78, 8.02, repro,
2003-05-30,-1.49, 2.81, -4.92, 2.07, 1.70, 7.79, repro,
2003-05-31,-0.18, 2.27, -8.02, 2.04, 1.65, 7.58, repro,
2003-06-01,0.19, 2.50, -6.03, 2.07, 1.67, 7.72, repro,
2003-06-02,0.95, 2.69, -11.38, 2.14, 1.71, 8.00, repro,
2003-06-03,-0.06, 0.90, -4.11, 2.14, 1.69, 7.88, repro,
2003-06-04,-0.69, 2.01, -5.02, 2.10, 1.66, 7.80, repro,
2003-06-05,-0.44, 1.69, 0.90, 2.08, 1.66, 7.73, repro,
2003-06-06,0.18, 1.43, -5.45, 2.14, 1.70, 7.92, repro,
2003-06-07,0.26, 1.71, -1.87, 2.10, 1.66, 7.77, repro,
2003-06-08,0.60, 0.53, -12.92, 2.09, 1.66, 7.73, repro,
2003-06-09,1.22, 2.29, 0.17, 2.12, 1.67, 7.85, repro,
2003-06-10,-2.34, 1.57, -0.73, 2.04, 1.66, 7.64, repro,
2003-06-11,-0.39, 2.50, 1.21, 2.04, 1.65, 7.55, repro,
2003-06-12,1.52, 0.06, -14.32, 2.10, 1.68, 7.86, repro,
2003-06-13,0.20, 2.23, -0.92, 2.09, 1.66, 7.74, repro,
2003-06-14,0.32, 1.48, -9.79, 2.08, 1.71, 7.84, repro,
2003-06-15,0.22, 2.13, -9.89, 2.04, 1.65, 7.59, repro,
2003-06-16,0.40, 2.34, -5.75, 2.03, 1.66, 7.60, repro,
2003-06-17,-0.18, 2.46, -9.35, 2.07, 1.71, 7.77, repro,
2003-06-18,0.49, 1.14, -14.11, 2.05, 1.65, 7.60, repro,
2003-06-19,-0.33, 2.81, -7.56, 2.06, 1.66, 7.73, repro,
2003-06-20,-0.63, 1.65, 1.72, 2.05, 1.65, 7.61, repro,
2003-06-21,-0.64, 2.49, -4.42, 2.07, 1.69, 7.74, repro,
2003-06-22,0.80, 2.98, -5.26, 2.03, 1.65, 7.56, repro,
2003-06-23,-1.79, 2.36, -11.94, 2.05, 1.67, 7.66, repro,
2003-06-24,0.79, 0.84, -2.99, 2.08, 1.72, 7.79, repro,
2003-06-25,0.85, 2.39, -13.78, 2.11, 1.66, 7.90, repro,
2003-06-26,0.02, 2.02, -13.94, 2.09, 1.69, 7.75, repro,
2003-06-27,-0.57, 1.75, -13.08, 2.10, 1.71, 7.82, repro,
2003-06-28,-0.24, 3.48, -8.25, 2.08, 1.69, 7.70, repro,
2003-06-29,1.33, 4.53, -8.84, 2.09, 1.69, 7.71, repro,
2003-06-30,1.33, 1.11, -10.13, 2.08, 1.69, 7.71, repro,
2003-07-01,0.26, 0.33, -11.17, 2.15, 1.70, 7.88, repro,
2003-07-02,0.81, 3.55, -6.91, 2.12, 1.70, 7.83, repro,
2003-07-03,0.22, 2.97, -11.64, 2.11, 1.75, 7.90, repro,
2003-07-04,-0.41, 3.29, -12.96, 2.12, 1.75, 7.90, repro,
2003-07-05,-1.00, 1.85, -8.91, 2.12, 1.74, 7.98, repro,
2003-07-06,-0.38, 2.68, -7.58, 2.08, 1.68, 7.69, repro,
2003-07-07,0.68, 1.24, -10.93, 2.08, 1.68, 7.69, repro,
2003-07-08,0.08, 2.36, -14.74, 2.14, 1.73, 7.85, repro,
2003-07-09,-0.73, 1.59, -3.02, 2.11, 1.69, 7.77, repro,
2003-07-10,-0.02, 3.07, -5.62, 2.12, 1.69, 7.78, repro,
2003-07-11,2.19, 2.73, -15.89, 2.15, 1.71, 7.89, repro,
2003-07-12,0.45, 2.55, -5.09, 2.12, 1.71, 7.73, repro,
2003-07-13,0.83, 2.34, -5.76, 2.17, 1.71, 7.99, repro,
2003-07-14,-0.72, 3.48, -9.26, 2.12, 1.71, 7.81, repro,
2003-07-15,1.12, 1.70, -7.34, 2.23, 1.79, 8.27, repro,
2003-07-16,0.70, 3.31, -10.18, 2.16, 1.70, 7.86, repro,
2003-07-17,1.11, 2.65, -7.79, 2.19, 1.71, 7.95, repro,
2003-07-18,1.15, 3.06, -10.98, 2.14, 1.70, 7.87, repro,
2003-07-19,-0.70, 4.11, -19.14, 2.10, 1.70, 7.77, repro,
2003-07-20,3.42, 2.27, -17.09, 2.24, 1.81, 8.28, repro,
2003-07-21,0.66, 2.23, -18.73, 2.22, 1.77, 8.01, repro,
2003-07-22,2.11, 4.06, -21.08, 2.16, 1.71, 7.94, repro,
2003-07-23,-0.53, 2.67, -9.47, 2.11, 1.69, 7.78, repro,
2003-07-24,1.31, 3.56, -10.15, 2.15, 1.70, 7.85, repro,
2003-07-25,-0.84, 3.41, -10.78, 2.16, 1.74, 7.98, repro,
2003-07-26,0.28, 3.35, -10.02, 2.25, 1.81, 8.23, repro,
2003-07-27,0.69, 3.86, -8.99, 2.16, 1.74, 7.94, repro,
2003-07-28,-0.66, 3.52, -9.14, 2.19, 1.77, 8.06, repro,
2003-07-29,1.51, 2.90, -16.10, 2.17, 1.80, 8.02, repro,
2003-07-30,-0.05, 2.56, -12.32, 2.15, 1.74, 8.14, repro,
2003-07-31,-0.45, 1.55, -4.90, 2.13, 1.77, 8.06, repro,
2003-08-01,-0.98, 3.87, -10.20, 2.13, 1.78, 8.03, repro,
2003-08-02,1.38, 3.46, -5.86, 2.14, 1.73, 8.01, repro,
2003-08-03,-2.06, 3.69, 2.56, 2.12, 1.74, 7.94, repro,
2003-08-04,0.61, 3.12, -14.51, 2.07, 1.73, 7.88, repro,
2003-08-05,1.40, 2.29, -4.09, 2.05, 1.68, 7.71, repro,
2003-08-06,1.89, 3.01, -7.48, 2.05, 1.67, 7.66, repro,
2003-08-07,0.52, 3.85, -17.75, 2.05, 1.66, 7.60, repro,
2003-08-08,1.00, 1.73, -15.43, 2.04, 1.65, 7.58, repro,
2003-08-09,0.39, 2.36, -16.37, 2.03, 1.66, 7.63, repro,
2003-08-10,0.81, 3.51, -12.67, 2.02, 1.65, 7.55, repro,
2003-08-11,-0.13, 2.86, -8.84, 2.05, 1.67, 7.72, repro,
2003-08-12,0.03, 3.28, -7.26, 2.04, 1.66, 7.61, repro,
2003-08-13,2.22, 3.56, -14.52, 2.04, 1.64, 7.53, repro,
2003-08-14,2.35, 2.29, -8.99, 2.06, 1.67, 7.71, repro,
2003-08-15,1.22, 4.14, -11.26, 2.02, 1.65, 7.58, repro,
2003-08-16,1.59, 3.03, -10.19, 2.04, 1.67, 7.73, repro,
2003-08-17,1.81, 2.86, -7.10, 2.04, 1.65, 7.59, repro,
2003-08-18,0.88, 2.88, -8.92, 2.03, 1.65, 7.59, repro,
2003-08-19,-1.44, 3.03, -9.42, 2.03, 1.66, 7.60, repro,
2003-08-20,0.42, 4.45, -9.27, 2.04, 1.65, 7.60, repro,
2003-08-21,-0.06, 2.15, -5.41, 2.04, 1.67, 7.70, repro,
2003-08-22,0.64, 2.65, -3.06, 2.03, 1.67, 7.66, repro,
2003-08-23,0.96, 2.39, -5.33, 2.04, 1.65, 7.62, repro,
2003-08-24,1.43, 2.89, 2.52, 2.04, 1.67, 7.63, repro,
2003-08-25,1.13, 3.32, -6.64, 2.04, 1.67, 7.73, repro,
2003-08-26,1.55, 2.38, -12.26, 2.05, 1.66, 7.71, repro,
2003-08-27,0.72, 3.97, 0.86, 2.03, 1.66, 7.67, repro,
2003-08-28,0.89, 3.88, -13.53, 2.09, 1.73, 7.85, repro,
2003-08-29,0.19, 2.72, -9.65, 2.03, 1.65, 7.53, repro,
2003-08-30,0.91, 1.82, -11.40, 2.02, 1.66, 7.57, repro,
2003-08-31,0.25, 3.67, -4.01, 2.05, 1.66, 7.66, repro,
2003-09-01,3.32, 1.36, -18.78, 2.06, 1.71, 7.85, repro,
2003-09-02,1.55, 3.51, -4.68, 2.06, 1.69, 7.82, repro,
2003-09-03,3.87, 2.53, -12.86, 2.08, 1.72, 7.74, repro,
2003-09-04,1.81, 1.03, -0.61, 2.07, 1.72, 7.74, repro,
2003-09-05,0.25, 3.48, -7.43, 2.04, 1.68, 7.71, repro,
2003-09-06,1.55, 4.48, 4.51, 2.03, 1.65, 7.57, repro,
2003-09-07,-0.00, 2.48, -9.40, 2.04, 1.66, 7.68, repro,
2003-09-08,0.19, 1.51, -3.37, 2.05, 1.68, 7.67, repro,
2003-09-09,0.82, 3.07, -6.86, 2.15, 1.74, 8.01, repro,
2003-09-10,0.04, 3.70, -7.47, 2.07, 1.73, 7.80, repro,
2003-09-11,0.42, 2.29, -3.33, 2.04, 1.67, 7.71, repro,
2003-09-12,2.48, 3.25, -3.25, 2.11, 1.69, 7.91, repro,
2003-09-13,2.22, 2.65, -0.64, 2.09, 1.73, 7.88, repro,
2003-09-14,2.01, 2.07, -4.70, 2.08, 1.71, 7.88, repro,
2003-09-15,2.05, 1.21, -5.43, 2.09, 1.72, 7.87, repro,
2003-09-16,1.33, 2.17, -4.12, 2.13, 1.74, 8.00, repro,
2003-09-17,1.18, 3.26, -9.92, 2.09, 1.68, 7.87, repro,
2003-09-18,1.62, 2.72, 0.92, 2.05, 1.71, 7.79, repro,
2003-09-19,0.70, 3.46, 2.87, 2.11, 1.75, 7.89, repro,
2003-09-20,2.33, 2.58, -8.82, 2.08, 1.72, 7.84, repro,
2003-09-21,0.48, 3.08, 2.11, 2.09, 1.74, 7.88, repro,
2003-09-22,1.39, 2.47, -8.57, 2.14, 1.82, 8.17, repro,
2003-09-23,3.19, 3.22, -10.84, 2.10, 1.71, 8.00, repro,
2003-09-24,0.30, 3.81, -0.36, 2.16, 1.74, 8.12, repro,
2003-09-25,1.38, 3.53, -11.36, 2.22, 1.73, 8.08, repro,
2003-09-26,1.76, 2.10, -3.71, 2.17, 1.79, 8.13, repro,
2003-09-27,0.87, 4.39, -0.60, 2.16, 1.78, 8.02, repro,
2003-09-28,2.69, 2.62, -2.20, 2.13, 1.72, 7.93, repro,
2003-09-29,1.21, 2.97, -1.53, 2.16, 1.77, 8.09, repro,
2003-09-30,1.84, 3.67, -4.74, 2.18, 1.76, 8.05, repro,
2003-10-01,0.36, 4.06, -6.46, 2.20, 1.83, 8.24, repro,
2003-10-02,1.22, 4.79, -1.83, 2.16, 1.80, 8.10, repro,
2003-10-03,1.10, 3.42, 3.16, 2.12, 1.72, 7.91, repro,
2003-10-04,1.01, 1.76, -4.72, 2.26, 1.90, 8.57, repro,
2003-10-05,0.68, 4.95, -8.38, 2.12, 1.71, 7.85, repro,
2003-10-06,-0.13, 3.16, -3.36, 2.16, 1.75, 8.01, repro,
2003-10-07,3.16, 2.93, 2.59, 2.29, 1.84, 8.29, repro,
2003-10-08,1.97, 3.49, -1.64, 2.20, 1.85, 8.18, repro,
2003-10-09,0.29, 3.32, 2.29, 2.18, 1.79, 8.12, repro,
2003-10-10,-0.80, 4.18, 5.51, 2.19, 1.79, 8.09, repro,
2003-10-11,1.56, 2.24, 7.61, 2.09, 1.67, 7.65, repro,
2003-10-12,0.66, 3.96, -5.72, 2.28, 1.81, 8.32, repro,
2003-10-13,1.33, 2.55, 6.18, 2.14, 1.74, 7.94, repro,
2003-10-14,1.29, 4.95, 5.77, 2.13, 1.76, 8.02, repro,
2003-10-15,0.12, 4.53, 1.99, 2.10, 1.78, 7.96, repro,
2003-10-16,1.68, 3.37, -3.10, 2.03, 1.67, 7.57, repro,
2003-10-17,0.29, 3.38, -3.90, 2.06, 1.70, 7.62, repro,
2003-10-18,2.08, 3.61, -1.26, 2.07, 1.76, 7.79, repro,
2003-10-19,1.05, 3.47, -3.82, 2.02, 1.68, 7.58, repro,
2003-10-20,1.44, 2.80, 1.34, 2.09, 1.78, 7.88, repro,
2003-10-21,1.50, 3.79, -2.15, 2.02, 1.67, 7.63, repro,
2003-10-22,2.14, 2.89, -10.37, 2.17, 1.75, 8.10, repro,
2003-10-23,1.66, 2.08, -2.48, 2.10, 1.73, 7.76, repro,
2003-10-24,1.47, 3.01, -2.52, 2.11, 1.75, 7.74, repro,
2003-10-25,0.17, 2.64, -6.66, 2.04, 1.71, 7.73, repro,
2003-10-26,1.33, 1.70, -17.71, 2.04, 1.71, 7.74, repro,
2003-10-27,1.55, 2.79, -0.77, 2.03, 1.66, 7.56, repro,
2003-10-28,1.61, 1.89, -1.16, 2.04, 1.68, 7.63, repro,
2003-10-29,2.35, 2.11, 0.36, 2.16, 1.81, 8.44, repro,
2003-10-30,0.77, 1.35, 3.50, 2.27, 1.90, 8.54, repro,
2003-10-31,0.50, 2.18, 1.40, 2.06, 1.72, 7.73, repro,
2003-11-01,0.10, 2.68, -2.70, 2.04, 1.66, 7.53, repro,
2003-11-02,1.16, 2.04, -1.27, 2.03, 1.66, 7.54, repro,
2003-11-03,-0.20, 2.20, 7.53, 2.09, 1.69, 7.87, repro,
2003-11-04,-0.47, 1.34, -5.37, 2.08, 1.73, 8.02, repro,
2003-11-05,1.18, 3.48, -9.26, 2.01, 1.66, 7.47, repro,
2003-11-06,-0.07, 1.63, -12.99, 2.05, 1.70, 7.72, repro,
2003-11-07,0.93, 1.65, -3.86, 2.07, 1.71, 7.78, repro,
2003-11-08,3.41, 3.17, 3.15, 2.07, 1.73, 7.85, repro,
2003-11-09,2.75, 6.95, 6.98, 2.07, 1.74, 7.92, repro,
2003-11-10,1.21, 2.32, -4.45, 2.05, 1.71, 7.66, repro,
2003-11-11,0.21, 1.74, -4.07, 2.13, 1.78, 8.26, repro,
2003-11-12,0.59, 1.64, -4.03, 2.08, 1.70, 7.88, repro,
2003-11-13,0.62, 1.05, -2.58, 2.23, 1.85, 8.46, repro,
2003-11-14,0.67, 0.75, -0.37, 2.23, 1.85, 8.39, repro,
2003-11-15,-0.33, 2.77, 1.48, 2.07, 1.72, 7.66, repro,
2003-11-16,0.99, 2.05, -5.36, 2.12, 1.73, 7.91, repro,
2003-11-17,0.20, 3.91, 1.58, 2.16, 1.81, 8.13, repro,
2003-11-18,0.50, 2.49, -8.14, 2.18, 1.81, 8.13, repro,
2003-11-19,0.91, 1.67, -3.13, 2.14, 1.81, 8.20, repro,
2003-11-20,0.54, 1.08, 4.62, 2.11, 1.76, 7.90, repro,
2003-11-21,1.81, 2.15, -2.79, 2.19, 1.87, 8.39, repro,
2003-11-22,0.20, 2.75, -9.22, 2.15, 1.89, 8.26, repro,
2003-11-23,0.70, 2.82, -9.30, 2.14, 1.81, 7.98, repro,
2003-11-24,0.98, 1.67, 1.11, 2.14, 1.81, 8.03, repro,
2003-11-25,-0.41, 0.95, -3.33, 2.17, 1.77, 8.10, repro,
2003-11-26,0.39, 1.53, 0.44, 2.03, 1.71, 7.73, repro,
2003-11-27,-1.01, 2.61, -5.49, 2.07, 1.71, 7.74, repro,
2003-11-28,-0.17, 3.02, -8.74, 2.07, 1.71, 7.74, repro,
2003-11-29,1.33, 2.08, -0.20, 2.10, 1.78, 8.06, repro,
2003-11-30,2.77, 1.52, -7.49, 2.04, 1.70, 7.68, repro,
2003-12-01,-0.91, 4.16, 0.69, 2.11, 1.77, 8.08, repro,
2003-12-02,0.58, 0.40, -5.56, 2.10, 1.74, 7.89, repro,
2003-12-03,-0.79, 0.47, 3.12, 2.10, 1.75, 7.96, repro,
2003-12-04,0.28, 3.90, -7.19, 2.08, 1.76, 7.88, repro,
2003-12-05,1.93, 1.90, -5.29, 2.05, 1.74, 7.88, repro,
2003-12-06,-0.49, 2.96, -9.09, 2.03, 1.69, 7.68, repro,
2003-12-07,0.27, 4.42, -9.35, 2.14, 1.76, 8.05, repro,
2003-12-08,0.09, 1.27, 2.98, 2.15, 1.79, 8.15, repro,
2003-12-09,1.46, 1.87, -6.16, 2.14, 1.74, 8.00, repro,
2003-12-10,2.63, 3.19, 1.61, 2.09, 1.78, 8.07, repro,
2003-12-11,-0.18, 1.60, 0.10, 2.14, 1.79, 8.13, repro,
2003-12-12,-0.27, 0.42, -6.27, 2.08, 1.76, 7.93, repro,
2003-12-13,2.28, 1.61, 3.05, 2.05, 1.73, 7.75, repro,
2003-12-14,1.28, 2.78, 0.42, 2.07, 1.74, 7.84, repro,
2003-12-15,-1.14, 0.52, -2.63, 2.07, 1.72, 7.78, repro,
2003-12-16,0.85, 1.04, -12.55, 2.13, 1.79, 8.06, repro,
2003-12-17,1.26, 3.01, -1.35, 2.13, 1.75, 7.97, repro,
2003-12-18,1.73, 1.81, -5.25, 2.09, 1.80, 8.04, repro,
2003-12-19,1.19, 3.92, 3.38, 2.11, 1.80, 8.11, repro,
2003-12-20,1.21, 2.05, -12.41, 2.22, 1.81, 8.35, repro,
2003-12-21,1.75, 2.08, -7.75, 2.23, 1.87, 8.46, repro,
2003-12-22,0.54, 1.54, -7.15, 2.07, 1.73, 7.77, repro,
2003-12-23,-0.16, 2.09, -0.35, 2.11, 1.76, 7.93, repro,
2003-12-24,-1.50, -1.58, 12.09, 2.10, 1.74, 7.95, repro,
2003-12-25,-3.63, -0.96, 3.32, 2.10, 1.76, 8.03, repro,
2003-12-26,-4.53, -2.77, 4.08, 2.05, 1.71, 7.70, repro,
2003-12-27,-3.04, -0.22, -10.88, 2.04, 1.69, 7.59, repro,
2003-12-28,-2.21, -0.95, -12.05, 2.02, 1.68, 7.56, repro,
2003-12-29,-3.54, 0.38, -2.43, 2.07, 1.70, 7.75, repro,
2003-12-30,-5.12, -0.69, 0.61, 2.08, 1.74, 7.91, repro,
2003-12-31,-2.63, -0.50, -6.94, 2.01, 1.66, 7.50, repro,
2004-01-01,1.26, -0.74, 5.21, 2.14, 1.77, 7.89, repro,
2004-01-02,-2.96, -0.88, -2.36, 2.11, 1.71, 7.74, repro,
2004-01-03,-4.08, 0.39, -4.72, 2.12, 1.72, 7.77, repro,
2004-01-04,-4.16, -0.32, -6.27, 2.09, 1.75, 7.85, repro,
2004-01-05,-3.46, -0.42, -13.48, 2.07, 1.75, 7.85, repro,
2004-01-06,-2.55, -0.44, -13.92, 2.09, 1.74, 7.76, repro,
2004-01-07,-2.41, -0.98, -9.63, 2.09, 1.73, 7.76, repro,
2004-01-08,-4.22, -2.23, -13.12, 2.10, 1.75, 7.87, repro,
2004-01-09,-4.42, 1.27, -11.06, 2.14, 1.81, 8.17, repro,
2004-01-10,-1.93, -0.71, -7.37, 2.11, 1.72, 7.74, repro,
2004-01-11,-2.91, -1.56, -8.20, 2.10, 1.80, 8.04, repro,
2004-01-12,-2.09, -1.14, -15.75, 2.09, 1.72, 7.78, repro,
2004-01-13,-3.74, -0.01, -18.09, 2.09, 1.71, 7.72, repro,
2004-01-14,-4.34, -0.64, -16.75, 2.13, 1.83, 8.12, repro,
2004-01-15,-2.51, -4.04, -7.25, 2.09, 1.76, 7.87, repro,
2004-01-16,-4.27, -1.35, -5.47, 2.19, 1.74, 8.20, repro,
2004-01-17,-2.70, -0.95, -10.97, 2.06, 1.77, 7.86, repro,
2004-01-18,-1.71, 0.46, -8.86, 2.07, 1.74, 7.82, repro,
2004-01-19,-2.88, -1.54, -13.40, 2.03, 1.74, 7.76, repro,
2004-01-20,-4.00, -2.07, -21.95, 2.16, 1.76, 8.03, repro,
2004-01-21,-3.60, -0.40, -15.01, 2.13, 1.78, 7.94, repro,
2004-01-22,-2.54, 0.01, -9.17, 2.09, 1.71, 7.75, repro,
2004-01-23,-3.05, -1.08, -19.34, 2.08, 1.78, 8.07, repro,
2004-01-24,-3.78, -1.08, -16.79, 2.14, 1.82, 8.27, repro,
2004-01-25,-4.14, -0.01, -10.82, 2.07, 1.76, 7.82, repro,
2004-01-26,-4.10, -1.02, -3.08, 2.08, 1.71, 7.84, repro,
2004-01-27,-1.21, -2.51, -9.53, 2.12, 1.85, 8.22, repro,
2004-01-28,-2.71, -2.15, -10.00, 2.17, 1.91, 8.18, repro,
2004-01-29,-5.18, -1.67, -7.11, 2.07, 1.77, 7.97, repro,
2004-01-30,-2.21, -1.58, -7.91, 2.06, 1.76, 7.91, repro,
2004-01-31,-5.77, -1.59, -4.34, 2.10, 1.79, 8.01, repro,
2004-02-01,-4.26, -1.98, -5.75, 2.00, 1.68, 7.64, repro,
2004-02-02,-4.95, -0.45, -3.19, 2.05, 1.72, 7.94, repro,
2004-02-03,-2.72, -0.23, -3.47, 2.07, 1.81, 8.07, repro,
2004-02-04,-3.72, -1.03, -5.51, 2.00, 1.74, 7.74, repro,
2004-02-05,-4.83, -0.74, -7.58, 2.01, 1.74, 7.74, repro,
2004-02-06,-2.02, 0.52, -0.14, 2.03, 1.71, 7.78, repro,
2004-02-07,-5.44, -0.94, -3.61, 2.14, 1.79, 8.09, repro,
2004-02-08,-2.65, -0.98, -8.63, 2.02, 1.71, 7.67, repro,
2004-02-09,-3.86, -0.14, -12.75, 2.02, 1.70, 7.73, repro,
2004-02-10,-4.77, -0.33, 0.24, 2.03, 1.70, 7.70, repro,
2004-02-11,-2.46, -1.37, -2.09, 2.05, 1.74, 7.73, repro,
2004-02-12,-4.38, -1.39, -5.19, 2.05, 1.71, 7.89, repro,
2004-02-13,-0.85, -0.56, 0.46, 2.05, 1.72, 7.91, repro,
2004-02-14,-2.02, -1.27, -5.58, 2.07, 1.73, 8.04, repro,
2004-02-15,-2.57, -0.75, -12.36, 2.09, 1.77, 8.19, repro,
2004-02-16,-2.45, -2.02, -11.62, 2.08, 1.70, 7.97, repro,
2004-02-17,-1.54, -0.86, -10.18, 2.09, 1.70, 7.96, repro,
2004-02-18,-8.02, 1.17, -2.09, 2.09, 1.73, 8.08, repro,
2004-02-19,-5.39, 0.68, 5.73, 2.05, 1.70, 7.88, repro,
2004-02-20,-2.35, -0.75, -7.82, 2.04, 1.72, 7.94, repro,
2004-02-21,-2.99, -1.92, -9.39, 2.01, 1.66, 7.55, repro,
2004-02-22,-2.66, -1.55, 3.67, 2.05, 1.67, 7.56, repro,
2004-02-23,-3.81, -1.95, -1.73, 2.05, 1.69, 7.64, repro,
2004-02-24,-3.72, -1.85, 4.17, 2.05, 1.70, 7.67, repro,
2004-02-25,-12.59, -3.78, 3.87, 2.11, 1.73, 7.91, repro,
2004-02-26,-7.38, -1.66, 3.51, 2.07, 1.71, 7.73, repro,
2004-02-27,-2.20, -1.83, 1.13, 2.07, 1.68, 7.63, repro,
2004-02-28,-2.51, -2.71, -2.28, 2.05, 1.71, 7.73, repro,
2004-02-29,-2.16, -1.84, -11.29, 2.05, 1.71, 7.75, repro,
2004-03-01,-0.01, -0.85, -11.72, 2.08, 1.75, 7.90, repro,
2004-03-02,-3.75, -1.48, -6.40, 2.06, 1.71, 7.75, repro,
2004-03-03,-2.63, -2.25, -7.78, 2.08, 1.74, 7.89, repro,
2004-03-04,-2.80, -1.83, -4.99, 2.09, 1.76, 7.97, repro,
2004-03-05,-2.56, -0.95, -4.36, 2.08, 1.76, 7.96, repro,
2004-03-06,-2.69, -1.58, -5.44, 2.05, 1.71, 7.77, repro,
2004-03-07,-1.51, -2.49, -16.97, 2.04, 1.69, 7.66, repro,
2004-03-08,-2.78, -1.49, -16.26, 2.05, 1.70, 7.69, repro,
2004-03-09,-2.24, -0.67, -18.37, 2.08, 1.77, 7.82, repro,
2004-03-10,-2.51, -0.06, -6.58, 2.05, 1.70, 7.67, repro,
2004-03-11,-2.38, -2.24, -6.69, 2.04, 1.68, 7.61, repro,
2004-03-12,-2.40, -0.03, -10.10, 2.04, 1.69, 7.64, repro,
2004-03-13,-2.39, -2.27, -15.33, 2.10, 1.75, 7.88, repro,
2004-03-14,-2.10, -1.73, -13.83, 2.05, 1.68, 7.69, repro,
2004-03-15,-2.29, -1.18, -12.32, 2.05, 1.70, 7.68, repro,
2004-03-16,-3.68, -2.58, 0.66, 2.05, 1.70, 7.68, repro,
2004-03-17,-2.49, -0.95, -7.27, 2.16, 1.73, 8.05, repro,
2004-03-18,-3.32, 0.11, -5.29, 2.28, 1.94, 8.67, repro,
2004-03-19,-3.85, -0.85, -0.80, 2.09, 1.71, 7.92, repro,